A/2019 O4

Japanese version
Home page
Updated on August 31, 2019

---------------------------------------------------------------------

* Profile

Discovery Date July 27, 2019
Magnitude 21.4 mag
Discoverer Pan-STARRS 1 telescope (Haleakala)

* Orbital Elements

Epoch 2020 Feb. 1.0 TT = JDT 2458880.5
T 2020 Feb.  9.92771 TT                                 Williams
q   3.6443898            (2000.0)            P               Q
n   0.00523177     Peri.   61.80531     +0.43751550     -0.89562541
a  32.8627258      Node   354.91838     -0.69738443     -0.28164472
e   0.8891026      Incl.  115.08487     +0.56765760     +0.34428387
P 188              H   15.5
From 34 observations 2018 Aug. 6-2019 Aug. 11, mean residual 0".2.

* Magnitudes Graph

        H = 15.5  G = 0.15

---------------------------------------------------------------------

The orbital elements are published on M.P.E.C. 2019-Q135.
The magnitudes graphs are made with Comet for Windows.

---------------------------------------------------------------------

Copyright(C) Seiichi Yoshida (comet@aerith.net). All rights reserved.